sat.trackr.live / text

‹ back to catalog

ICEYE-X33

NORAD 60548 · 2024-149CJ

PAYLOAD ACTIVE UNKNOWN

§ Identity

Operator
Country
US
Launch date
2024-08-16
Launch site
AFWTR
Launch vehicle
Mass (kg)
RCS (m²)

External: N2YO · Heavens-Above · Gunter

§ Orbital elements

Epoch: 2026-05-25T04:02:47.345856Z

Period
95.94 min
Inclination
97.7197°
Eccentricity
0.0000430
Mean motion
15.00902357 rev/d
Perigee alt
563.8 km
Apogee alt
564.4 km
Semi-major
6,942.2 km
B*
2.8314e-4
RAAN
224.4460°
Arg perigee
130.0039°
Mean anomaly
230.1223°
Rev number
9,675

§ Raw data

ICEYE-X331 60548U 24149CJ  26145.16860354  .00003545  00000+0  28314-3 0  99912 60548  97.7197 224.4460 0000430 130.0039 230.1223 15.00902357 96752

JSON: /api/v1/satellites/60548 · /tle

For live sub-satellite position, see the globe view (requires WebGL).

§ Visibility from observer

Set your observer location to see the next 7 days of passes ≥ 10°. The values pass through the URL so the page stays shareable.

No JS? Fill the form by hand. The geolocation button needs JavaScript.

§ Radio — SatNOGS DB

ModeDescriptionDownlinkUplink
BPSK S-band telemetry 2.276 GHz

1 transmitter · refreshed weekly from db.satnogs.org